RYR556 LBSF-LIBD

Flight info

Callsign RYR556
Flight time 0h 57m
Altitude 36000
Route LBSF 27 OMEN3T OMENO DCT LETNI P92 MAVAR DCT CRAYE Z636 ENOXA DCT LIBD 25
Aircraft B738/M-VGDW/C

Departure

Time 2026-04-23 20:21
Airport Sofia Airport (LBSF)

Arrival

Time 2026-04-23 21:19
Airport Bari Karol Wojtyła International Airport (LIBD)
Time Latitude Longitude Altitude Speed Heading
2026-04-23 19:31 42.68991 23.40935 1752 ft 0 kts 162°
2026-04-23 20:14 42.68986 23.40938 1745 ft 4 kts 162°
2026-04-23 20:14 42.68956 23.40953 1743 ft 6 kts 152°
2026-04-23 20:15 42.68942 23.41029 1747 ft 10 kts 70°
2026-04-23 20:15 42.68962 23.41115 1744 ft 9 kts 72°
2026-04-23 20:15 42.68990 23.41194 1744 ft 10 kts 51°
2026-04-23 20:15 42.69049 23.41227 1750 ft 10 kts 353°
2026-04-23 20:16 42.69113 23.41201 1749 ft 9 kts 341°
2026-04-23 20:16 42.69174 23.41174 1746 ft 12 kts 341°
2026-04-23 20:16 42.69274 23.41166 1749 ft 16 kts 11°
2026-04-23 20:16 42.69385 23.41195 1752 ft 16 kts 11°
2026-04-23 20:17 42.69480 23.41253 1752 ft 15 kts 62°
2026-04-23 20:17 42.69478 23.41394 1744 ft 15 kts 94°
2026-04-23 20:17 42.69471 23.41536 1752 ft 17 kts 94°
2026-04-23 20:17 42.69459 23.41740 1752 ft 26 kts 95°
2026-04-23 20:18 42.69442 23.42019 1752 ft 33 kts 95°
2026-04-23 20:18 42.69426 23.42319 1752 ft 32 kts 94°
2026-04-23 20:18 42.69408 23.42614 1744 ft 30 kts 95°
2026-04-23 20:18 42.69392 23.42888 1746 ft 28 kts 94°
2026-04-23 20:19 42.69376 23.43145 1750 ft 27 kts 95°
2026-04-23 20:19 42.69361 23.43385 1752 ft 25 kts 95°
2026-04-23 20:19 42.69348 23.43612 1748 ft 23 kts 94°
2026-04-23 20:19 42.69333 23.43825 1745 ft 22 kts 95°
2026-04-23 20:20 42.69393 23.43948 1752 ft 16 kts
2026-04-23 20:20 42.69497 23.43939 1746 ft 15 kts 328°
2026-04-23 20:20 42.69525 23.43812 1745 ft 14 kts 276°
2026-04-23 20:20 42.69541 23.43556 1753 ft 57 kts 274°
2026-04-23 20:21 42.69594 23.42666 1745 ft 130 kts 274°
2026-04-23 20:21 42.69680 23.41157 1785 ft 188 kts 274°
2026-04-23 20:21 42.69783 23.39318 2516 ft 198 kts 275°
2026-04-23 20:21 42.69940 23.37401 3233 ft 209 kts 279°
2026-04-23 20:22 42.70244 23.35452 3477 ft 208 kts 295°
2026-04-23 20:22 42.71221 23.34307 4187 ft 179 kts 349°
2026-04-23 20:22 42.72386 23.34605 5156 ft 168 kts 27°
2026-04-23 20:22 42.73440 23.35322 5644 ft 179 kts
2026-04-23 20:23 42.74693 23.34930 5842 ft 194 kts 334°
2026-04-23 20:23 42.76009 23.34412 6288 ft 202 kts 356°
2026-04-23 20:23 42.77411 23.34348 6818 ft 203 kts 353°
2026-04-23 20:23 42.78811 23.34118 7390 ft 200 kts 351°
2026-04-23 20:24 42.80204 23.33863 7899 ft 204 kts 351°
2026-04-23 20:24 42.81615 23.33605 8403 ft 206 kts 351°
2026-04-23 20:24 42.83048 23.33343 8903 ft 208 kts 351°
2026-04-23 20:24 42.84498 23.33079 9382 ft 212 kts 351°
2026-04-23 20:25 42.85986 23.33134 9770 ft 221 kts 18°
2026-04-23 20:25 42.87253 23.34286 10163 ft 232 kts 48°
2026-04-23 20:25 42.87982 23.36325 10559 ft 242 kts 79°
2026-04-23 20:25 42.87846 23.38614 10948 ft 247 kts 111°
2026-04-23 20:26 42.86831 23.40470 11397 ft 253 kts 139°
2026-04-23 20:26 42.85393 23.41931 11835 ft 262 kts 144°
2026-04-23 20:26 42.83846 23.43338 12274 ft 271 kts 145°
2026-04-23 20:26 42.82244 23.44783 12688 ft 282 kts 144°
2026-04-23 20:27 42.80571 23.46314 12966 ft 295 kts 144°
2026-04-23 20:27 42.78870 23.47893 13221 ft 295 kts 143°
2026-04-23 20:27 42.77185 23.49471 13475 ft 293 kts 143°
2026-04-23 20:27 42.75511 23.51043 13727 ft 290 kts 143°
2026-04-23 20:28 42.73862 23.52592 13968 ft 288 kts 143°
2026-04-23 20:28 42.72117 23.53980 14216 ft 295 kts 153°
2026-04-23 20:28 42.70221 23.55117 14480 ft 302 kts 155°
2026-04-23 20:28 42.68232 23.56241 14765 ft 317 kts 155°
2026-04-23 20:29 42.66150 23.57428 15038 ft 331 kts 155°
2026-04-23 20:29 42.64013 23.58667 15295 ft 338 kts 154°
2026-04-23 20:29 42.61844 23.59943 15536 ft 339 kts 154°
2026-04-23 20:29 42.59716 23.61207 15778 ft 339 kts 153°
2026-04-23 20:30 42.57555 23.62496 16041 ft 338 kts 153°
2026-04-23 20:30 42.53248 23.64965 17082 ft 342 kts 162°
2026-04-23 20:30 42.50844 23.65127 17586 ft 353 kts 189°
2026-04-23 20:31 42.48544 23.63931 18149 ft 359 kts 210°
2026-04-23 20:31 42.46421 23.62118 18665 ft 362 kts 211°
2026-04-23 20:31 42.44273 23.60283 19149 ft 366 kts 211°
2026-04-23 20:31 42.42838 23.59066 19471 ft 368 kts 211°
2026-04-23 20:32 42.40649 23.57223 19954 ft 372 kts 211°
2026-04-23 20:32 42.37726 23.54786 20613 ft 375 kts 211°
2026-04-23 20:32 42.36238 23.53552 21128 ft 378 kts 211°
2026-04-23 20:32 42.33242 23.51073 21634 ft 379 kts 211°
2026-04-23 20:33 42.31749 23.49822 21985 ft 381 kts 214°
2026-04-23 20:33 42.29840 23.47363 22466 ft 382 kts 238°
2026-04-23 20:33 42.28694 23.44162 23031 ft 376 kts 256°
2026-04-23 20:33 42.27962 23.40786 23609 ft 374 kts 257°
2026-04-23 20:34 42.26987 23.36284 24057 ft 382 kts 257°
2026-04-23 20:34 42.26473 23.33927 24031 ft 393 kts 257°
2026-04-23 20:34 42.25683 23.30341 24163 ft 402 kts 256°
2026-04-23 20:34 42.24869 23.26695 24440 ft 409 kts 256°
2026-04-23 20:35 42.24043 23.23028 24661 ft 416 kts 256°
2026-04-23 20:35 42.23181 23.19222 24904 ft 422 kts 256°
2026-04-23 20:35 42.22320 23.15434 25149 ft 425 kts 256°
2026-04-23 20:35 42.21455 23.11638 25383 ft 426 kts 256°
2026-04-23 20:36 42.20579 23.07804 25627 ft 427 kts 256°
2026-04-23 20:36 42.19703 23.03972 25874 ft 428 kts 256°
2026-04-23 20:36 42.18826 23.00138 26123 ft 429 kts 256°
2026-04-23 20:36 42.17943 22.96287 26365 ft 429 kts 255°
2026-04-23 20:37 42.17063 22.92449 26630 ft 429 kts 255°
2026-04-23 20:37 42.16179 22.88607 26873 ft 429 kts 255°
2026-04-23 20:37 42.15295 22.84767 27113 ft 429 kts 255°
2026-04-23 20:37 42.14409 22.80925 27387 ft 428 kts 255°
2026-04-23 20:38 42.13541 22.77169 27642 ft 427 kts 255°
2026-04-23 20:38 42.12658 22.73352 27895 ft 425 kts 255°
2026-04-23 20:38 42.11779 22.69558 28168 ft 424 kts 255°
2026-04-23 20:38 42.10904 22.65785 28422 ft 422 kts 255°
2026-04-23 20:39 42.10028 22.62019 28693 ft 420 kts 255°
2026-04-23 20:39 42.09215 22.58232 28959 ft 418 kts 259°
2026-04-23 20:39 42.08557 22.54433 29232 ft 415 kts 261°
2026-04-23 20:39 42.07967 22.50646 29510 ft 413 kts 262°
2026-04-23 20:40 42.07391 22.46864 29773 ft 412 kts 262°
2026-04-23 20:40 42.06812 22.43104 30064 ft 410 kts 261°
2026-04-23 20:40 42.06219 22.39327 30315 ft 413 kts 261°
2026-04-23 20:40 42.05614 22.35543 30570 ft 415 kts 261°
2026-04-23 20:41 42.04995 22.31733 30814 ft 417 kts 261°
2026-04-23 20:41 42.04377 22.27957 31049 ft 418 kts 261°
2026-04-23 20:41 42.03747 22.24131 31291 ft 419 kts 261°
2026-04-23 20:41 42.03112 22.20288 31553 ft 421 kts 261°
2026-04-23 20:42 42.02475 22.16446 31803 ft 422 kts 261°
2026-04-23 20:42 42.01835 22.12587 32056 ft 423 kts 261°
2026-04-23 20:42 42.01195 22.08742 32315 ft 424 kts 261°
2026-04-23 20:42 42.00548 22.04858 32565 ft 425 kts 261°
2026-04-23 20:43 41.99899 22.00969 32763 ft 426 kts 261°
2026-04-23 20:43 41.99246 21.97063 32984 ft 428 kts 261°
2026-04-23 20:43 41.98592 21.93160 33203 ft 429 kts 260°
2026-04-23 20:43 41.97934 21.89240 33425 ft 430 kts 260°
2026-04-23 20:44 41.97278 21.85348 33639 ft 431 kts 260°
2026-04-23 20:44 41.96607 21.81375 33863 ft 432 kts 260°
2026-04-23 20:44 41.95941 21.77438 34058 ft 434 kts 260°
2026-04-23 20:44 41.95268 21.73456 34068 ft 440 kts 260°
2026-04-23 20:45 41.93889 21.65341 34075 ft 450 kts 260°
2026-04-23 20:45 41.92239 21.57206 34065 ft 452 kts 255°
2026-04-23 20:46 41.90301 21.49269 34064 ft 449 kts 254°
2026-04-23 20:46 41.88368 21.41311 34063 ft 447 kts 254°
2026-04-23 20:47 41.86479 21.33376 34065 ft 446 kts 255°
2026-04-23 20:47 41.84592 21.25433 34062 ft 447 kts 254°
2026-04-23 20:48 41.82689 21.17469 34066 ft 447 kts 254°
2026-04-23 20:48 41.80775 21.09520 34069 ft 448 kts 254°
2026-04-23 20:49 41.78867 21.01613 34092 ft 450 kts 254°
2026-04-23 20:49 41.76921 20.93575 34086 ft 451 kts 254°
2026-04-23 20:50 41.74988 20.85614 34096 ft 453 kts 254°
2026-04-23 20:50 41.73033 20.77590 34094 ft 454 kts 254°
2026-04-23 20:51 41.71059 20.69520 34097 ft 455 kts 253°
2026-04-23 20:51 41.69082 20.61456 34098 ft 456 kts 253°
2026-04-23 20:52 41.67148 20.53366 34078 ft 455 kts 258°
2026-04-23 20:52 41.66645 20.49216 34093 ft 450 kts 269°
2026-04-23 20:52 41.66432 20.45084 34088 ft 450 kts 269°
2026-04-23 20:53 41.65996 20.36743 34076 ft 449 kts 269°
2026-04-23 20:53 41.65517 20.28442 34069 ft 448 kts 268°
2026-04-23 20:54 41.65010 20.20137 34085 ft 447 kts 268°
2026-04-23 20:54 41.64493 20.11868 34053 ft 445 kts 268°
2026-04-23 20:55 41.63972 20.03630 34062 ft 444 kts 268°
2026-04-23 20:55 41.63447 19.95395 34067 ft 444 kts 268°
2026-04-23 20:56 41.62917 19.87172 34059 ft 444 kts 268°
2026-04-23 20:56 41.62384 19.79000 34047 ft 445 kts 268°
2026-04-23 20:57 41.61841 19.70758 34042 ft 446 kts 268°
2026-04-23 20:57 41.61289 19.62499 34047 ft 445 kts 268°
2026-04-23 20:58 41.60809 19.55371 34051 ft 446 kts 268°
2026-04-23 20:58 41.60249 19.47141 34047 ft 447 kts 268°
2026-04-23 20:59 41.59684 19.38909 34048 ft 448 kts 268°
2026-04-23 20:59 41.59112 19.30679 34053 ft 448 kts 268°
2026-04-23 21:00 41.58556 19.22761 34053 ft 448 kts 267°
2026-04-23 21:00 41.57972 19.14531 34050 ft 448 kts 267°
2026-04-23 21:01 41.57375 19.06199 34056 ft 447 kts 267°
2026-04-23 21:01 41.56780 18.97975 34052 ft 447 kts 267°
2026-04-23 21:02 41.56177 18.89715 34056 ft 446 kts 267°
2026-04-23 21:02 41.55569 18.81485 34049 ft 445 kts 267°
2026-04-23 21:03 41.54958 18.73283 34060 ft 444 kts 267°
2026-04-23 21:03 41.54341 18.65086 33836 ft 447 kts 267°
2026-04-23 21:04 41.54029 18.60955 33471 ft 446 kts 267°
2026-04-23 21:04 41.53713 18.56803 32939 ft 452 kts 267°
2026-04-23 21:04 41.53394 18.52630 32433 ft 454 kts 267°
2026-04-23 21:04 41.53070 18.48421 31903 ft 454 kts 267°
2026-04-23 21:05 41.52748 18.44264 31383 ft 447 kts 267°
2026-04-23 21:05 41.52429 18.40177 30876 ft 440 kts 267°
2026-04-23 21:05 41.52109 18.36090 30398 ft 439 kts 267°
2026-04-23 21:05 41.51793 18.32040 29885 ft 439 kts 266°
2026-04-23 21:06 41.51475 18.27984 29322 ft 439 kts 266°
2026-04-23 21:06 41.51157 18.23947 28775 ft 438 kts 266°
2026-04-23 21:06 41.50840 18.19945 28234 ft 437 kts 266°
2026-04-23 21:06 41.50519 18.15923 27706 ft 436 kts 266°
2026-04-23 21:07 41.50090 18.11913 27155 ft 436 kts 258°
2026-04-23 21:07 41.49131 18.08097 26513 ft 432 kts 249°
2026-04-23 21:07 41.48054 18.04366 25874 ft 428 kts 250°
2026-04-23 21:07 41.47012 18.00637 25158 ft 427 kts 250°
2026-04-23 21:08 41.46002 17.96936 24496 ft 424 kts 250°
2026-04-23 21:08 41.45004 17.93235 23792 ft 424 kts 250°
2026-04-23 21:08 41.44021 17.89576 23010 ft 423 kts 250°
2026-04-23 21:08 41.43022 17.85851 22202 ft 421 kts 250°
2026-04-23 21:09 41.42049 17.82230 21427 ft 419 kts 250°
2026-04-23 21:09 41.41066 17.78580 20592 ft 419 kts 250°
2026-04-23 21:09 41.40078 17.74917 19700 ft 421 kts 250°
2026-04-23 21:09 41.39074 17.71200 18834 ft 421 kts 251°
2026-04-23 21:10 41.38094 17.67583 17945 ft 420 kts 251°
2026-04-23 21:10 41.37102 17.63927 17022 ft 419 kts 251°
2026-04-23 21:10 41.36118 17.60306 16197 ft 414 kts 251°
2026-04-23 21:10 41.35141 17.56715 15450 ft 409 kts 251°
2026-04-23 21:11 41.34180 17.53189 14715 ft 403 kts 252°
2026-04-23 21:11 41.33228 17.49699 13986 ft 398 kts 252°
2026-04-23 21:11 41.32283 17.46241 13146 ft 394 kts 252°
2026-04-23 21:11 41.31351 17.42832 12342 ft 390 kts 252°
2026-04-23 21:12 41.30436 17.39490 11696 ft 381 kts 253°
2026-04-23 21:12 41.29528 17.36180 10788 ft 381 kts 252°
2026-04-23 21:12 41.28622 17.32883 9924 ft 380 kts 252°
2026-04-23 21:12 41.27715 17.29582 8958 ft 381 kts 252°
2026-04-23 21:13 41.26810 17.26294 8061 ft 382 kts 252°
2026-04-23 21:13 41.25895 17.22978 7498 ft 372 kts 252°
2026-04-23 21:13 41.25014 17.19780 6510 ft 377 kts 252°
2026-04-23 21:13 41.24111 17.16512 5722 ft 373 kts 252°
2026-04-23 21:14 41.23219 17.13289 5132 ft 365 kts 252°
2026-04-23 21:14 41.22355 17.10175 4669 ft 354 kts 252°
2026-04-23 21:14 41.21520 17.07170 4356 ft 338 kts 254°
2026-04-23 21:14 41.20931 17.04281 4146 ft 319 kts 263°
2026-04-23 21:15 41.20540 17.01477 4037 ft 297 kts 264°
2026-04-23 21:15 41.20183 16.98878 3878 ft 269 kts 265°
2026-04-23 21:15 41.19733 16.96573 3696 ft 253 kts 254°
2026-04-23 21:15 41.19114 16.94465 3458 ft 239 kts 254°
2026-04-23 21:16 41.18520 16.92471 3188 ft 226 kts 255°
2026-04-23 21:16 41.17950 16.90506 2450 ft 232 kts 256°
2026-04-23 21:16 41.17388 16.88542 2031 ft 221 kts 256°
2026-04-23 21:16 41.16863 16.86700 1739 ft 205 kts 256°
2026-04-23 21:17 41.16378 16.84993 1471 ft 189 kts 256°
2026-04-23 21:17 41.15933 16.83426 1210 ft 175 kts 257°
2026-04-23 21:17 41.15507 16.81900 921 ft 177 kts 253°
2026-04-23 21:17 41.15070 16.80391 682 ft 175 kts 251°
2026-04-23 21:18 41.14805 16.79399 493 ft 169 kts 252°
2026-04-23 21:18 41.14377 16.77967 221 ft 164 kts 249°
2026-04-23 21:18 41.14005 16.76625 134 ft 138 kts 250°
2026-04-23 21:18 41.13734 16.75645 166 ft 91 kts 249°
2026-04-23 21:19 41.13558 16.75024 174 ft 57 kts 249°
2026-04-23 21:19 41.13460 16.74743 181 ft 13 kts 208°
2026-04-23 21:19 41.13389 16.74789 183 ft 13 kts 121°
2026-04-23 21:19 41.13348 16.74891 183 ft 13 kts 107°
2026-04-23 21:20 41.13367 16.75001 179 ft 13 kts 72°
2026-04-23 21:20 41.13399 16.75122 176 ft 15 kts 69°
2026-04-23 21:20 41.13450 16.75302 170 ft 25 kts 69°
2026-04-23 21:20 41.13509 16.75507 169 ft 23 kts 69°
2026-04-23 21:21 41.13567 16.75709 164 ft 23 kts 69°
2026-04-23 21:21 41.13620 16.75904 160 ft 20 kts 70°
2026-04-23 21:21 41.13633 16.75949 158 ft 7 kts 72°
2026-04-23 21:21 41.13606 16.76059 154 ft 16 kts 140°
2026-04-23 21:22 41.13554 16.76158 153 ft 13 kts 87°
2026-04-23 21:22 41.13585 16.76276 150 ft 13 kts 69°
2026-04-23 21:22 41.13601 16.76334 148 ft 6 kts 69°
2026-04-23 21:22 41.13603 16.76397 146 ft 7 kts 122°
2026-04-23 21:23 41.13565 16.76422 147 ft 1 kts 185°
2026-04-23 21:23 41.13556 16.76419 147 ft 0 kts 197°
2026-04-23 21:31 41.13556 16.76418 148 ft 0 kts 197°
2026-04-23 21:32 41.13557 16.76418 148 ft 0 kts 197°
2026-04-23 21:32 41.13556 16.76418 148 ft 0 kts 197°
2026-04-23 21:33 41.13557 16.76418 149 ft 0 kts 197°
2026-04-23 21:36 41.13556 16.76418 149 ft 0 kts 197°
2026-04-23 21:36 41.13557 16.76418 150 ft 0 kts 197°
2026-04-23 21:36 41.13556 16.76418 149 ft 0 kts 197°
2026-04-23 21:37 41.13557 16.76418 150 ft 0 kts 197°